Regional Weather Roundup
Issued by NWS Little Rock, AR

Home | Current Version | Previous Version | Graphics & Text | Print | Product List | Glossary On
Versions: 1 2 3 4 5 6 7 8 9 10 11 12 13 14 15 16 17 18 19 20 21 22 23 24 25 26 27 28 29 30 31
000
ASUS44 KLZK 061205
RWRLZK

WEATHER ROUNDUP FOR ARKANSAS
NATIONAL WEATHER SERVICE LITTLE ROCK AR
600 AM CST TUE DEC 06 2016

NOTE: "FAIR" INDICATES FEW OR NO CLOUDS BELOW 12,000 FEET WITH NO
SIGNIFICANT WEATHER AND/OR OBSTRUCTIONS TO VISIBILITY.

ARZ001-003-010-029-061300-
NORTHWEST ARKANSAS

CITY           SKY/WX    TMP DP  RH WIND       PRES   REMARKS
FAYETTEVILLE   CLOUDY    42  40  92 NW12      29.82R
6HR MIN TEMP:  42; 6HR MAX TEMP:  44; 6HR PCP:  0.03;

FORT SMITH     PTCLDY    43  41  93 W8        29.82R
6HR MIN TEMP:  43; 6HR MAX TEMP:  46; 6HR PCP:  0.06;

HARRISON       PTCLDY    39  39 100 NW9       29.77R
6HR MIN TEMP:  39; 6HR MAX TEMP:  40; 6HR PCP:  0.18;

BENTONVILLE    CLOUDY    43  36  75 N9        29.82R
6HR MIN TEMP:  43; 6HR MAX TEMP:  45;

ROGERS         CLOUDY    42  38  85 N10G20    29.82R
6HR MIN TEMP:  41; 6HR MAX TEMP:  43;

SILOAM SPGS    CLOUDY    43  37  81 N15G21    29.82R
6HR MIN TEMP:  43; 6HR MAX TEMP:  43;

HIGHFILL       CLOUDY    42  39  89 N14       29.81R
6HR MIN TEMP:  42; 6HR MAX TEMP:  44;

SPRINGDALE     CLOUDY    43  41  93 NW9G16    29.82
$$

ARZ004-005-016-061300-
NORTH CENTRAL ARKANSAS

CITY           SKY/WX    TMP DP  RH WIND       PRES   REMARKS
BATESVILLE     CLOUDY    43  39  87 CALM      29.76R
6HR MIN TEMP:  41; 6HR MAX TEMP:  43; 6HR PCP:  0.25;

FLIPPIN        CLOUDY    43  36  75 NW8       29.75R
6HR MIN TEMP:  41; 6HR MAX TEMP:  43; 6HR PCP:  0.26;

MTN HOME       CLOUDY    40  40 100 N7        29.76R
6HR MIN TEMP:  39; 6HR MAX TEMP:  40; 6HR PCP:  0.18;

$$

ARZ040-041-061300-
WEST CENTRAL ARKANSAS

CITY           SKY/WX    TMP DP  RH WIND       PRES   REMARKS
MENA           CLOUDY    50  48  93 NW5       29.79R
MOUNT IDA      MOCLDY    46  44  93 W6        29.75R
6HR MIN TEMP:  45; 6HR MAX TEMP:  46; 6HR PCP:  0.12;

$$

ARZ009-017-025-026-028-061300-
NORTHEAST ARKANSAS

CITY           SKY/WX    TMP DP  RH WIND       PRES   REMARKS
CORNING        PTSUNNY   41  41 100 NW7       29.73R
JONESBORO      CLOUDY    42  40  92 NW6       29.73R
6HR MIN TEMP:  42; 6HR MAX TEMP:  42; 6HR PCP:  0.59;

NEWPORT        CLOUDY    42  41  96 NW7       29.75R
6HR MIN TEMP:  41; 6HR MAX TEMP:  42; 6HR PCP:  0.24;

WALNUT RIDGE   MOCLDY    41  37  87 NW9       29.73R
6HR MIN TEMP:  41; 6HR MAX TEMP:  41; 6HR PCP:  0.23;

BLYTHEVILLE    LGT RAIN  43  42  97 N6        29.71R
6HR MIN TEMP:  43; 6HR MAX TEMP:  45; 6HR PCP:  0.32;

$$

ARZ022-023-033-042-044-061300-
CENTRAL ARKANSAS

CITY           SKY/WX    TMP DP  RH WIND       PRES   REMARKS
LITTLE ROCK    CLOUDY    44  44 100 NW6       29.77R
6HR MIN TEMP:  42; 6HR MAX TEMP:  44; 6HR PCP:  0.18;

N LITTLE ROCK    N/A     43  42  97 N5        29.78R
6HR MIN TEMP:  42; 6HR MAX TEMP:  43;

JACKSONVILLE   CLOUDY    44  44  99 CALM      29.75R
6HR MIN TEMP:  44; 6HR MAX TEMP:  44; 6HR PCP:  0.07;

SEARCY         CLOUDY    43  43 100 CALM      29.78R
6HR MIN TEMP:  43; 6HR MAX TEMP:  44; 6HR PCP:  0.18;

HOT SPRINGS    PTCLDY    45  44  97 W3        29.77R
6HR MIN TEMP:  45; 6HR MAX TEMP:  46; 6HR PCP:  0.16;

RUSSELLVILLE   CLOUDY    45  43  93 NW10      29.76R
6HR MIN TEMP:  43; 6HR MAX TEMP:  45; 6HR PCP:  0.07;

CLINTON        MOCLDY    43  41  93 CALM      29.73F
$$

ARZ036-061300-
EAST ARKANSAS

CITY           SKY/WX    TMP DP  RH WIND       PRES   REMARKS
WEST MEMPHIS   LGT RAIN  43  43 100 VRB5      29.72R FOG
6HR MIN TEMP:  43; 6HR MAX TEMP:  46; 6HR PCP:  0.89;

$$

ARZ050-053-066-070-073-061300-
SOUTHWEST ARKANSAS

CITY           SKY/WX    TMP DP  RH WIND       PRES   REMARKS
ARKADELPHIA    FAIR      44  44 100 SW6       29.79R
6HR MIN TEMP:  44; 6HR MAX TEMP:  46;

CAMDEN         CLOUDY    45  43  93 W6        29.81R
TEXARKANA      CLOUDY    46  45  96 W3        29.80S
6HR MIN TEMP:  44; 6HR MAX TEMP:  47; 6HR PCP:  0.03;

EL DORADO      CLOUDY    46  45  96 NW5       29.80R
6HR MIN TEMP:  45; 6HR MAX TEMP:  46; 6HR PCP:  0.60;

DE QUEEN       CLOUDY    47  47 100 W5        29.79R
6HR MIN TEMP:  44; 6HR MAX TEMP:  47; 6HR PCP: TRACE;

$$

ARZ056-057-069-061300-
SOUTHEAST ARKANSAS

CITY           SKY/WX    TMP DP  RH WIND       PRES   REMARKS
PINE BLUFF     CLOUDY    45  43  93 NW8       29.78R
6HR MIN TEMP:  44; 6HR MAX TEMP:  45; 6HR PCP:  0.17;

STUTTGART      CLOUDY    45  39  81 NW9       29.76R
6HR MIN TEMP:  43; 6HR MAX TEMP:  45; 6HR PCP:  0.26;

MONTICELLO     CLOUDY    46  44  93 NW5       29.76R
6HR MIN TEMP:  46; 6HR MAX TEMP:  47; 6HR PCP:  0.32;


$$






USA.gov is the U.S. government's official web portal to all federal, state and local government web resources and services.